M I D A S
Marine Information and Data Acquisition System
Tripno 1928 of the Zeeleeuw from 2010-07-29 06:54:23 to 2010-07-30 10:55:56
Back to CruiseResearch ActivitiesStationsMapUnderway DataData graphs

EquipmentUnitsComments
TimeDGPSUTC
LatitudeDGPSDM.mWGS84
LongitudeDGPSDM.mWGS84
SpeedMeteo Stationm/sRelative wind speed
DirectionMeteo StationdegRelative wind direction
TemperatureMeteo Stationdeg CelciusAir temperature
PressureMeteo StationPaAtmospheric pressure
HumidityMeteo Station%Relative humidity
Missing or incorrect values are displayed as -999
Metereological data collected by the RV Zeeleeuw from 2010-07-29 02:04:57 to 2010-07-30 12:59:40
                                                                                    Next 1000 lines
Time Latitude Longitude Speed Direction Temperature Pressure Humidity
2010-07-29 02:05:07 51°13.662 2°55.961 5.8 77 17.3 101280 42
2010-07-29 02:05:12 51°13.662 2°55.961 5.2 35 17.3 101280 42
2010-07-29 02:05:17 51°13.662 2°55.961 3.8 83 17.3 101280 42
2010-07-29 02:05:22 51°13.662 2°55.961 4.9 35 17.3 101280 42
2010-07-29 02:05:27 51°13.662 2°55.961 6.2 77 17.3 101290 42
2010-07-29 02:05:32 51°13.662 2°55.961 6.2 33 17.3 101290 42
2010-07-29 02:05:37 51°13.662 2°55.961 7.2 24 17.3 101290 42
2010-07-29 02:05:42 51°13.662 2°55.961 5.9 33 17.3 101290 42
2010-07-29 02:05:47 51°13.662 2°55.961 6 77 17.3 101280 42
2010-07-29 02:05:52 51°13.662 2°55.961 4.9 38 17.3 101280 42
2010-07-29 02:05:57 51°13.662 2°55.961 5.6 80 17.3 101290 42
2010-07-29 02:06:02 51°13.662 2°55.961 4.9 33 17.3 101290 42
2010-07-29 02:06:07 51°13.662 2°55.961 5.1 83 17.3 101290 42
2010-07-29 02:06:12 51°13.662 2°55.961 4.9 33 17.3 101290 42
2010-07-29 02:06:17 51°13.662 2°55.961 5.1 83 17.3 101280 42
2010-07-29 02:06:22 51°13.662 2°55.961 5.9 36 17.3 101280 42
2010-07-29 02:06:27 51°13.662 2°55.961 4.5 77 17.3 101290 42
2010-07-29 02:06:32 51°13.662 2°55.961 5.3 32 17.3 101290 42
2010-07-29 02:06:37 51°13.662 2°55.961 4.9 21 17.3 101290 42
2010-07-29 02:06:42 51°13.662 2°55.961 6.8 39 17.3 101290 42
2010-07-29 02:06:47 51°13.662 2°55.961 6.3 75 17.3 101280 40
2010-07-29 02:06:52 51°13.662 2°55.96 5.5 37 17.3 101280 40
2010-07-29 02:06:57 51°13.662 2°55.96 6.9 81 17.3 101290 42
2010-07-29 02:07:02 51°13.662 2°55.961 6.8 34 17.3 101290 42
2010-07-29 02:07:07 51°13.662 2°55.96 4.9 83 17.3 101290 42
2010-07-29 02:07:12 51°13.662 2°55.961 5.7 34 17.3 101290 42
2010-07-29 02:07:17 51°13.662 2°55.961 4.7 77 17.3 101290 41
2010-07-29 02:07:22 51°13.662 2°55.961 6.8 35 17.3 101290 41
2010-07-29 02:07:27 51°13.662 2°55.961 5.8 82 17.3 101290 42
2010-07-29 02:07:32 51°13.662 2°55.961 5.1 33 17.3 101290 42
2010-07-29 02:07:37 51°13.662 2°55.961 5.5 22 17.3 101290 42
2010-07-29 02:07:42 51°13.662 2°55.961 7.4 34 17.3 101290 42
2010-07-29 02:07:47 51°13.662 2°55.961 6.7 83 17.3 101280 41
2010-07-29 02:07:52 51°13.662 2°55.961 5.9 40 17.3 101280 41
2010-07-29 02:07:57 51°13.662 2°55.961 5.5 77 17.2 101290 41
2010-07-29 02:08:02 51°13.662 2°55.961 5.6 41 17.2 101290 41
2010-07-29 02:08:07 51°13.662 2°55.961 6.5 76 17.2 101290 40
2010-07-29 02:08:12 51°13.662 2°55.961 6.1 37 17.2 101290 40
2010-07-29 02:08:17 51°13.662 2°55.961 5.9 78 17.2 101290 42
2010-07-29 02:08:22 51°13.662 2°55.961 5 35 17.2 101290 42
2010-07-29 02:08:27 51°13.662 2°55.961 6.5 77 17.2 101290 41
2010-07-29 02:08:32 51°13.662 2°55.961 6.4 35 17.2 101290 41
2010-07-29 02:08:37 51°13.662 2°55.961 5.5 28 17.2 101280 40
2010-07-29 02:08:42 51°13.662 2°55.961 5.3 33 17.2 101280 40
2010-07-29 02:08:47 51°13.662 2°55.961 5.5 80 17.1 101290 40
2010-07-29 02:08:52 51°13.662 2°55.961 5.2 37 17.1 101290 40
2010-07-29 02:08:57 51°13.662 2°55.961 4.1 78 17.1 101280 42
2010-07-29 02:09:02 51°13.662 2°55.961 3.8 38 17.1 101280 42
2010-07-29 02:09:07 51°13.662 2°55.961 5.3 80 17.1 101290 40
2010-07-29 02:09:12 51°13.662 2°55.961 4.5 32 17.1 101290 40
2010-07-29 02:09:17 51°13.662 2°55.961 5.9 76 17.1 101280 42
2010-07-29 02:09:22 51°13.662 2°55.961 5.6 33 17.1 101280 42
2010-07-29 02:09:27 51°13.662 2°55.961 5.5 82 17.1 101290 40
2010-07-29 02:09:32 51°13.662 2°55.961 5.6 35 17.1 101290 40
2010-07-29 02:09:37 51°13.662 2°55.961 5.5 21 17.1 101290 43
2010-07-29 02:09:42 51°13.662 2°55.961 6.2 40 17.1 101290 43
2010-07-29 02:09:47 51°13.663 2°55.961 5.5 77 17.2 101290 42
2010-07-29 02:09:52 51°13.663 2°55.961 5.2 38 17.2 101290 42
2010-07-29 02:09:57 51°13.662 2°55.961 5.6 82 17.1 101290 42
2010-07-29 02:10:02 51°13.662 2°55.961 5.5 39 17.1 101290 42
2010-07-29 02:10:07 51°13.663 2°55.961 6.2 82 17.1 101290 41
2010-07-29 02:10:12 51°13.663 2°55.961 6.2 40 17.1 101290 41
2010-07-29 02:10:17 51°13.662 2°55.961 5.9 77 17.1 101290 41
2010-07-29 02:10:22 51°13.662 2°55.961 5.7 38 17.1 101290 41
2010-07-29 02:10:27 51°13.662 2°55.961 6.4 82 17.1 101290 41
2010-07-29 02:10:32 51°13.662 2°55.961 4.7 33 17.1 101290 41
2010-07-29 02:10:37 51°13.662 2°55.961 3.8 29 17.2 101290 42
2010-07-29 02:10:42 51°13.662 2°55.961 5.5 34 17.2 101290 42
2010-07-29 02:10:47 51°13.662 2°55.961 4.5 82 17.2 101290 43
2010-07-29 02:10:52 51°13.662 2°55.961 5.5 34 17.2 101290 43
2010-07-29 02:10:57 51°13.662 2°55.961 5.7 83 17.2 101280 43
2010-07-29 02:11:02 51°13.662 2°55.961 5.4 38 17.2 101280 43
2010-07-29 02:11:07 51°13.662 2°55.961 5.5 81 17.2 101280 41
2010-07-29 02:11:12 51°13.662 2°55.961 5.6 32 17.2 101280 41
2010-07-29 02:11:17 51°13.662 2°55.961 5 78 17.2 101280 43
2010-07-29 02:11:22 51°13.662 2°55.961 4.7 40 17.2 101280 43
2010-07-29 02:11:27 51°13.662 2°55.961 5.1 75 17.2 101290 43
2010-07-29 02:11:32 51°13.662 2°55.961 4.7 32 17.2 101290 43
2010-07-29 02:11:37 51°13.662 2°55.961 6.1 24 17.2 101280 41
2010-07-29 02:11:42 51°13.662 2°55.961 4.7 33 17.2 101280 41
2010-07-29 02:11:47 51°13.662 2°55.961 5.6 82 17.2 101290 41
2010-07-29 02:11:52 51°13.662 2°55.961 5 38 17.2 101290 41
2010-07-29 02:11:57 51°13.662 2°55.961 4.8 76 17.2 101290 43
2010-07-29 02:12:02 51°13.662 2°55.961 6.1 40 17.2 101290 43
2010-07-29 02:12:07 51°13.662 2°55.96 7.2 77 17.2 101290 40
2010-07-29 02:12:12 51°13.662 2°55.96 4.4 34 17.2 101290 40
2010-07-29 02:12:17 51°13.662 2°55.96 7.2 82 17.2 101290 42
2010-07-29 02:12:22 51°13.662 2°55.96 5.5 33 17.2 101290 42
2010-07-29 02:12:27 51°13.662 2°55.96 5.5 77 17.2 101290 43
2010-07-29 02:12:32 51°13.662 2°55.96 6.9 39 17.2 101290 43
2010-07-29 02:12:37 51°13.662 2°55.96 6.6 21 17.2 101290 42
2010-07-29 02:12:42 51°13.662 2°55.96 4.8 40 17.2 101290 42
2010-07-29 02:12:47 51°13.662 2°55.96 5.1 77 17.2 101290 41
2010-07-29 02:12:52 51°13.662 2°55.96 4 33 17.2 101290 41
2010-07-29 02:12:57 51°13.662 2°55.96 6 76 17.2 101290 41
2010-07-29 02:13:02 51°13.662 2°55.96 4.9 34 17.2 101290 41
2010-07-29 02:13:07 51°13.662 2°55.96 4.2 75 17.2 101290 41
2010-07-29 02:13:12 51°13.662 2°55.96 5.7 34 17.2 101290 41
2010-07-29 02:13:17 51°13.662 2°55.96 6.5 76 17.2 101280 42
2010-07-29 02:13:22 51°13.662 2°55.96 5.5 31 17.2 101280 42
2010-07-29 02:13:27 51°13.662 2°55.96 6.1 80 17.2 101280 41
2010-07-29 02:13:32 51°13.662 2°55.96 5.9 38 17.2 101280 41
2010-07-29 02:13:37 51°13.662 2°55.96 6.5 25 17.2 101290 41
2010-07-29 02:13:42 51°13.662 2°55.96 4.6 33 17.2 101290 41
2010-07-29 02:13:47 51°13.662 2°55.96 6.2 77 17.2 101290 41
2010-07-29 02:13:52 51°13.662 2°55.961 4.4 34 17.2 101290 41
2010-07-29 02:13:57 51°13.662 2°55.961 6 82 17.2 101290 42
2010-07-29 02:14:02 51°13.662 2°55.961 5.3 39 17.2 101290 42
2010-07-29 02:14:07 51°13.662 2°55.961 4.6 76 17.2 101280 41
2010-07-29 02:14:12 51°13.662 2°55.961 6.6 33 17.2 101280 41
2010-07-29 02:14:17 51°13.662 2°55.961 5.7 75 17.2 101290 41
2010-07-29 02:14:22 51°13.662 2°55.961 5.6 40 17.2 101290 41
2010-07-29 02:14:27 51°13.662 2°55.961 5.5 77 17.2 101280 41
2010-07-29 02:14:32 51°13.662 2°55.961 7.3 34 17.2 101280 41
2010-07-29 02:14:37 51°13.662 2°55.961 6.5 23 17.2 101280 41
2010-07-29 02:14:42 51°13.662 2°55.961 6.1 40 17.2 101280 41
2010-07-29 02:14:47 51°13.662 2°55.961 6 77 17.1 101290 39
2010-07-29 02:14:52 51°13.662 2°55.961 6.2 37 17.1 101290 39
2010-07-29 02:14:57 51°13.663 2°55.961 6.3 77 17.1 101290 42
2010-07-29 02:15:02 51°13.663 2°55.961 5.2 35 17.1 101290 42
2010-07-29 02:15:07 51°13.663 2°55.961 5 77 17.1 101290 41
2010-07-29 02:15:12 51°13.662 2°55.961 6 35 17.1 101290 41
2010-07-29 02:15:17 51°13.662 2°55.961 4.4 75 17.1 101280 40
2010-07-29 02:15:22 51°13.663 2°55.961 4.2 33 17.1 101280 40
2010-07-29 02:15:27 51°13.662 2°55.961 5.9 76 17.1 101290 42
2010-07-29 02:15:32 51°13.662 2°55.961 4.3 38 17.1 101290 42
2010-07-29 02:15:37 51°13.662 2°55.961 4.9 20 17.1 101290 41
2010-07-29 02:15:42 51°13.662 2°55.961 6.4 32 17.1 101290 41
2010-07-29 02:15:47 51°13.663 2°55.961 4.4 75 17.1 101290 42
2010-07-29 02:15:52 51°13.663 2°55.961 6.1 40 17.1 101290 42
2010-07-29 02:15:57 51°13.663 2°55.961 5.1 82 17.1 101280 41
2010-07-29 02:16:02 51°13.663 2°55.961 5.7 35 17.1 101280 41
2010-07-29 02:16:07 51°13.663 2°55.961 4.8 77 17.2 101290 42
2010-07-29 02:16:12 51°13.662 2°55.961 5.7 31 17.2 101290 42
2010-07-29 02:16:17 51°13.663 2°55.961 5.1 78 17.2 101280 42
2010-07-29 02:16:22 51°13.663 2°55.961 5.7 32 17.2 101280 42
2010-07-29 02:16:27 51°13.662 2°55.961 5.1 76 17.2 101290 41
2010-07-29 02:16:32 51°13.662 2°55.961 4.6 34 17.2 101290 41
2010-07-29 02:16:37 51°13.662 2°55.961 5.5 26 17.2 101280 41
2010-07-29 02:16:42 51°13.662 2°55.961 5.5 35 17.2 101280 41
2010-07-29 02:16:47 51°13.662 2°55.961 5.9 84 17.2 101290 42
2010-07-29 02:16:52 51°13.662 2°55.961 6.1 39 17.2 101290 42
2010-07-29 02:16:57 51°13.662 2°55.961 4.8 76 17.2 101280 41
2010-07-29 02:17:02 51°13.662 2°55.961 5.8 39 17.2 101280 41
2010-07-29 02:17:07 51°13.662 2°55.961 6.2 79 17.2 101290 41
2010-07-29 02:17:12 51°13.662 2°55.961 5.9 33 17.2 101290 41
2010-07-29 02:17:17 51°13.662 2°55.961 5.4 81 17.1 101290 42
2010-07-29 02:17:22 51°13.662 2°55.961 5.3 32 17.1 101290 42
2010-07-29 02:17:27 51°13.662 2°55.961 3.3 81 17.2 101280 40
2010-07-29 02:17:32 51°13.662 2°55.961 6.1 33 17.2 101280 40
2010-07-29 02:17:37 51°13.662 2°55.961 5.3 20 17.2 101280 41
2010-07-29 02:17:42 51°13.662 2°55.961 5.3 41 17.2 101280 41
2010-07-29 02:17:47 51°13.662 2°55.961 6.5 78 17.2 101290 41
2010-07-29 02:17:52 51°13.662 2°55.961 5.3 38 17.2 101290 41
2010-07-29 02:17:57 51°13.662 2°55.961 5.3 74 17.2 101280 41
2010-07-29 02:18:02 51°13.662 2°55.961 5.9 34 17.2 101280 41
2010-07-29 02:18:07 51°13.662 2°55.961 4.8 79 17.2 101280 41
2010-07-29 02:18:12 51°13.662 2°55.961 5.3 33 17.2 101280 41
2010-07-29 02:18:17 51°13.663 2°55.961 5.1 82 17.2 101290 42
2010-07-29 02:18:22 51°13.662 2°55.961 5.5 35 17.2 101290 42
2010-07-29 02:18:27 51°13.662 2°55.961 3.2 80 17.2 101290 41
2010-07-29 02:18:32 51°13.662 2°55.961 5 33 17.2 101290 41
2010-07-29 02:18:37 51°13.663 2°55.961 5.4 23 17.2 101280 42
2010-07-29 02:18:42 51°13.662 2°55.961 4.4 36 17.2 101280 42
2010-07-29 02:18:47 51°13.662 2°55.961 4.4 82 17.2 101290 41
2010-07-29 02:18:52 51°13.662 2°55.961 4.6 32 17.2 101290 41
2010-07-29 02:18:57 51°13.662 2°55.961 5.9 76 17.2 101280 42
2010-07-29 02:19:02 51°13.662 2°55.961 6 33 17.2 101280 42
2010-07-29 02:19:07 51°13.662 2°55.961 5.5 76 17.2 101290 41
2010-07-29 02:19:12 51°13.662 2°55.961 5.3 34 17.2 101290 41
2010-07-29 02:19:17 51°13.662 2°55.961 5.9 76 17.2 101280 41
2010-07-29 02:19:22 51°13.662 2°55.961 6.7 33 17.2 101280 41
2010-07-29 02:19:27 51°13.662 2°55.961 6.6 80 17.2 101280 43
2010-07-29 02:19:32 51°13.662 2°55.961 6 35 17.2 101280 43
2010-07-29 02:19:37 51°13.662 2°55.961 6.4 24 17.2 101290 43
2010-07-29 02:19:42 51°13.662 2°55.961 5.8 34 17.2 101290 43
2010-07-29 02:19:47 51°13.662 2°55.961 5.3 78 17.2 101290 41
2010-07-29 02:19:52 51°13.662 2°55.961 4.9 40 17.2 101290 41
2010-07-29 02:19:57 51°13.662 2°55.961 4.8 83 17.2 101290 41
2010-07-29 02:20:02 51°13.662 2°55.961 5 41 17.2 101290 41
2010-07-29 02:20:07 51°13.662 2°55.961 6 84 17.2 101290 39
2010-07-29 02:20:12 51°13.662 2°55.961 5.6 35 17.2 101290 39
2010-07-29 02:20:17 51°13.662 2°55.961 5 79 17.2 101290 41
2010-07-29 02:20:22 51°13.662 2°55.961 5.7 37 17.2 101290 41
2010-07-29 02:20:27 51°13.662 2°55.961 5.6 76 17.2 101290 42
2010-07-29 02:20:32 51°13.662 2°55.961 6.1 34 17.2 101290 42
2010-07-29 02:20:37 51°13.662 2°55.961 5.8 26 17.2 101290 40
2010-07-29 02:20:42 51°13.662 2°55.961 6 39 17.2 101290 40
2010-07-29 02:20:47 51°13.662 2°55.961 5.7 82 17.2 101290 41
2010-07-29 02:20:52 51°13.662 2°55.961 4.8 39 17.2 101290 41
2010-07-29 02:20:57 51°13.662 2°55.961 3.7 77 17.2 101290 41
2010-07-29 02:21:02 51°13.662 2°55.961 5.1 41 17.2 101290 41
2010-07-29 02:21:07 51°13.662 2°55.961 5.1 83 17.2 101290 41
2010-07-29 02:21:12 51°13.662 2°55.961 4.7 35 17.2 101290 41
2010-07-29 02:21:17 51°13.662 2°55.961 6.1 77 17.2 101280 40
2010-07-29 02:21:22 51°13.662 2°55.961 6.3 38 17.2 101280 40
2010-07-29 02:21:27 51°13.662 2°55.961 4.2 79 17.2 101280 41
2010-07-29 02:21:32 51°13.662 2°55.962 6.5 35 17.2 101280 41
2010-07-29 02:21:37 51°13.662 2°55.961 6.2 24 17.2 101280 41
2010-07-29 02:21:42 51°13.662 2°55.961 5.3 35 17.2 101280 41
2010-07-29 02:21:47 51°13.662 2°55.961 5.3 80 17.2 101280 40
2010-07-29 02:21:52 51°13.662 2°55.961 6.1 34 17.2 101280 40
2010-07-29 02:21:57 51°13.662 2°55.961 4.2 76 17.2 101290 42
2010-07-29 02:22:02 51°13.662 2°55.961 4.2 41 17.2 101290 42
2010-07-29 02:22:07 51°13.662 2°55.961 5.1 28 17.2 101280 40
2010-07-29 02:22:12 51°13.662 2°55.961 5.4 40 17.2 101280 40
2010-07-29 02:22:17 51°13.662 2°55.961 5.4 77 17.2 101280 40
2010-07-29 02:22:22 51°13.662 2°55.962 6.1 33 17.2 101280 40
2010-07-29 02:22:27 51°13.662 2°55.962 4.8 75 17.2 101280 41
2010-07-29 02:22:32 51°13.662 2°55.962 4.8 35 17.2 101280 41
2010-07-29 02:22:37 51°13.662 2°55.962 5.1 23 17.2 101280 42
2010-07-29 02:22:42 51°13.662 2°55.962 5.7 38 17.2 101280 42
2010-07-29 02:22:47 51°13.662 2°55.962 5.7 82 17.2 101280 39
2010-07-29 02:22:52 51°13.662 2°55.962 6.6 38 17.2 101280 39
2010-07-29 02:22:57 51°13.662 2°55.962 6.6 77 17.2 101280 42
2010-07-29 02:23:02 51°13.662 2°55.961 6.6 35 17.2 101280 42
2010-07-29 02:23:07 51°13.662 2°55.961 6.4 82 17.2 101280 42
2010-07-29 02:23:12 51°13.662 2°55.961 4.6 36 17.2 101280 42
2010-07-29 02:23:17 51°13.662 2°55.961 5 23 17.2 101280 42
2010-07-29 02:23:22 51°13.662 2°55.961 6 33 17.2 101280 42
2010-07-29 02:23:27 51°13.662 2°55.961 3.8 76 17.2 101290 41
2010-07-29 02:23:32 51°13.663 2°55.961 4.4 35 17.2 101290 41
2010-07-29 02:23:37 51°13.663 2°55.961 4.8 24 17.2 101290 41
2010-07-29 02:23:42 51°13.663 2°55.961 6 33 17.2 101290 41
2010-07-29 02:23:47 51°13.663 2°55.961 7.7 77 17.2 101280 42
2010-07-29 02:23:52 51°13.663 2°55.96 6.7 33 17.2 101280 42
2010-07-29 02:23:57 51°13.663 2°55.96 5.6 82 17.2 101280 41
2010-07-29 02:24:02 51°13.663 2°55.96 5.6 35 17.2 101280 41
2010-07-29 02:24:07 51°13.663 2°55.96 5.6 74 17.2 101280 42
2010-07-29 02:24:12 51°13.663 2°55.96 5.5 34 17.2 101280 42
2010-07-29 02:24:17 51°13.663 2°55.96 4.6 78 17.2 101280 41
2010-07-29 02:24:22 51°13.663 2°55.96 4.8 37 17.2 101280 41
2010-07-29 02:24:27 51°13.663 2°55.96 4.6 81 17.2 101290 42
2010-07-29 02:24:32 51°13.663 2°55.96 4.7 32 17.2 101290 42
2010-07-29 02:24:37 51°13.662 2°55.96 5.5 22 17.2 101280 42
2010-07-29 02:24:42 51°13.662 2°55.96 3.5 34 17.2 101280 42
2010-07-29 02:24:47 51°13.662 2°55.96 4.5 82 17.2 101280 41
2010-07-29 02:24:52 51°13.662 2°55.96 5.9 32 17.2 101280 41
2010-07-29 02:24:57 51°13.662 2°55.96 7 79 17.2 101280 41
2010-07-29 02:25:02 51°13.663 2°55.96 6 32 17.2 101280 41
2010-07-29 02:25:07 51°13.663 2°55.96 6.6 23 17.2 101280 41
2010-07-29 02:25:12 51°13.662 2°55.96 6.2 38 17.2 101280 41
2010-07-29 02:25:17 51°13.662 2°55.96 5.9 76 17.3 101280 41
2010-07-29 02:25:22 51°13.662 2°55.96 4.5 39 17.3 101280 41
2010-07-29 02:25:27 51°13.662 2°55.96 5.2 83 17.2 101290 40
2010-07-29 02:25:32 51°13.662 2°55.96 4.4 34 17.2 101290 40
2010-07-29 02:25:37 51°13.662 2°55.96 4 27 17.2 101280 42
2010-07-29 02:25:42 51°13.662 2°55.96 5.1 38 17.2 101280 42
2010-07-29 02:25:47 51°13.662 2°55.96 4.8 77 17.2 101280 42
2010-07-29 02:25:52 51°13.662 2°55.96 5.1 41 17.2 101280 42
2010-07-29 02:25:57 51°13.662 2°55.96 4.5 28 17.2 101280 42
2010-07-29 02:26:02 51°13.662 2°55.96 4.8 31 17.2 101280 42
2010-07-29 02:26:07 51°13.662 2°55.96 4 79 17.2 101280 41
2010-07-29 02:26:12 51°13.662 2°55.96 4.8 36 17.2 101280 41
2010-07-29 02:26:17 51°13.662 2°55.96 4.8 23 17.2 101280 40
2010-07-29 02:26:22 51°13.662 2°55.96 6.4 33 17.2 101280 40
2010-07-29 02:26:27 51°13.662 2°55.96 4.7 76 17.2 101270 42
2010-07-29 02:26:32 51°13.662 2°55.96 5.3 39 17.2 101270 42
2010-07-29 02:26:37 51°13.662 2°55.96 5.1 23 17.2 101280 41
2010-07-29 02:26:42 51°13.662 2°55.96 5.3 37 17.2 101280 41
2010-07-29 02:26:47 51°13.662 2°55.96 5 82 17.2 101280 41
2010-07-29 02:26:52 51°13.662 2°55.959 4.8 33 17.2 101280 41
2010-07-29 02:26:57 51°13.662 2°55.959 5.7 77 17.2 101280 41
2010-07-29 02:27:02 51°13.662 2°55.959 5 35 17.2 101280 41
2010-07-29 02:27:07 51°13.662 2°55.959 4.2 75 17.2 101280 42
2010-07-29 02:27:12 51°13.662 2°55.959 4.3 34 17.2 101280 42
2010-07-29 02:27:17 51°13.662 2°55.96 5.5 83 17.2 101280 41
2010-07-29 02:27:22 51°13.662 2°55.96 5.8 32 17.2 101280 41
2010-07-29 02:27:27 51°13.662 2°55.96 5.7 76 17.2 101280 43
2010-07-29 02:27:32 51°13.662 2°55.96 4.8 33 17.2 101280 43
2010-07-29 02:27:37 51°13.662 2°55.96 5.4 21 17.2 101280 41
2010-07-29 02:27:42 51°13.662 2°55.96 5.4 41 17.2 101280 41
2010-07-29 02:27:47 51°13.662 2°55.96 5.2 84 17.2 101270 43
2010-07-29 02:27:52 51°13.662 2°55.96 5 34 17.2 101270 43
2010-07-29 02:27:57 51°13.662 2°55.96 6.5 82 17.2 101280 41
2010-07-29 02:28:02 51°13.662 2°55.96 5.7 39 17.2 101280 41
2010-07-29 02:28:07 51°13.662 2°55.96 6 29 17.2 101280 41
2010-07-29 02:28:12 51°13.662 2°55.96 5.9 39 17.2 101280 41
2010-07-29 02:28:17 51°13.662 2°55.96 6.8 76 17.2 101270 42
2010-07-29 02:28:22 51°13.662 2°55.96 6.4 40 17.2 101270 42
2010-07-29 02:28:27 51°13.662 2°55.96 5.9 77 17.2 101270 41
2010-07-29 02:28:32 51°13.662 2°55.96 5.2 35 17.2 101270 41
2010-07-29 02:28:37 51°13.662 2°55.96 5 24 17.2 101270 41
2010-07-29 02:28:42 51°13.662 2°55.96 5.8 34 17.2 101270 41
2010-07-29 02:28:47 51°13.662 2°55.96 5.1 77 17.1 101280 41
2010-07-29 02:28:52 51°13.662 2°55.96 5 33 17.1 101280 41
2010-07-29 02:28:57 51°13.662 2°55.96 6.5 83 17.1 101280 41
2010-07-29 02:29:02 51°13.662 2°55.96 5.3 36 17.1 101280 41
2010-07-29 02:29:07 51°13.662 2°55.96 5.8 75 17.1 101280 42
2010-07-29 02:29:12 51°13.662 2°55.96 5.8 35 17.1 101280 42
2010-07-29 02:29:17 51°13.662 2°55.96 6 76 17.1 101280 41
2010-07-29 02:29:22 51°13.662 2°55.96 5.1 33 17.1 101280 41
2010-07-29 02:29:27 51°13.662 2°55.96 4.4 82 17.1 101270 41
2010-07-29 02:29:32 51°13.662 2°55.96 3.5 34 17.1 101270 41
2010-07-29 02:29:37 51°13.662 2°55.96 4.5 23 17.1 101270 42
2010-07-29 02:29:42 51°13.662 2°55.96 4.3 31 17.1 101270 42
2010-07-29 02:29:47 51°13.662 2°55.96 5.6 76 17.1 101270 42
2010-07-29 02:29:52 51°13.662 2°55.96 4.6 34 17.1 101270 42
2010-07-29 02:29:57 51°13.662 2°55.96 5.4 81 17.1 101280 43
2010-07-29 02:30:02 51°13.662 2°55.96 6.1 40 17.1 101280 43
2010-07-29 02:30:07 51°13.662 2°55.96 5.3 78 17.1 101270 41
2010-07-29 02:30:12 51°13.662 2°55.96 5.5 40 17.1 101270 41
2010-07-29 02:30:17 51°13.662 2°55.96 6.8 75 17.1 101270 43
2010-07-29 02:30:22 51°13.662 2°55.96 5.4 34 17.1 101270 43
2010-07-29 02:30:27 51°13.662 2°55.96 4.5 77 17.1 101280 42
2010-07-29 02:30:32 51°13.662 2°55.96 2.7 33 17.1 101280 42
2010-07-29 02:30:37 51°13.662 2°55.96 3.5 28 17.1 101270 41
2010-07-29 02:30:42 51°13.662 2°55.96 3.3 41 17.1 101270 41
2010-07-29 02:30:47 51°13.662 2°55.96 4.5 83 17.1 101280 41
2010-07-29 02:30:52 51°13.662 2°55.96 7.2 32 17.1 101280 41
2010-07-29 02:30:57 51°13.662 2°55.96 6 84 17.1 101270 43
2010-07-29 02:31:02 51°13.662 2°55.96 5.8 33 17.1 101270 43
2010-07-29 02:31:07 51°13.662 2°55.96 7.1 77 17.1 101280 41
2010-07-29 02:31:12 51°13.662 2°55.96 6.8 37 17.1 101280 41
2010-07-29 02:31:17 51°13.662 2°55.96 5.2 78 17.1 101270 43
2010-07-29 02:31:22 51°13.662 2°55.96 6.2 38 17.1 101270 43
2010-07-29 02:31:27 51°13.662 2°55.96 6.3 76 17 101280 41
2010-07-29 02:31:32 51°13.662 2°55.96 5.8 33 17 101280 41
2010-07-29 02:31:37 51°13.662 2°55.96 5.8 29 17 101270 41
2010-07-29 02:31:42 51°13.662 2°55.96 6.1 34 17 101270 41
2010-07-29 02:31:47 51°13.662 2°55.96 5.1 78 17 101280 41
2010-07-29 02:31:52 51°13.662 2°55.96 6.2 33 17 101280 41
2010-07-29 02:31:57 51°13.662 2°55.96 5.8 75 17 101280 42
2010-07-29 02:32:02 51°13.662 2°55.96 5.2 36 17 101280 42
2010-07-29 02:32:07 51°13.662 2°55.96 4.6 75 17 101280 42
2010-07-29 02:32:12 51°13.662 2°55.961 4.6 38 17 101280 42
2010-07-29 02:32:17 51°13.662 2°55.96 5.7 76 17 101280 41
2010-07-29 02:32:22 51°13.662 2°55.96 5.3 38 17 101280 41
2010-07-29 02:32:27 51°13.661 2°55.96 4.2 79 17 101270 41
2010-07-29 02:32:32 51°13.661 2°55.96 3.4 40 17 101270 41
2010-07-29 02:32:37 51°13.661 2°55.96 4.5 23 17 101280 43
2010-07-29 02:32:42 51°13.661 2°55.961 5 33 17 101280 43
2010-07-29 02:32:47 51°13.661 2°55.961 5.1 75 17 101270 43
2010-07-29 02:32:52 51°13.661 2°55.961 5.9 37 17 101270 43
2010-07-29 02:32:57 51°13.661 2°55.961 5.2 76 17 101280 41
2010-07-29 02:33:02 51°13.661 2°55.961 3.9 35 17 101280 41
2010-07-29 02:33:07 51°13.661 2°55.961 5.2 80 17 101270 42
2010-07-29 02:33:12 51°13.661 2°55.961 5.8 35 17 101270 42
2010-07-29 02:33:17 51°13.661 2°55.961 6.5 75 17 101280 42
2010-07-29 02:33:22 51°13.661 2°55.961 5.8 32 17 101280 42
2010-07-29 02:33:27 51°13.661 2°55.961 3.6 76 17 101270 41
2010-07-29 02:33:32 51°13.661 2°55.961 5.8 39 17 101270 41
2010-07-29 02:33:37 51°13.661 2°55.961 5.5 28 17 101280 41
2010-07-29 02:33:42 51°13.662 2°55.961 5.7 33 17 101280 41
2010-07-29 02:33:47 51°13.663 2°55.956 5 81 17 101270 41
2010-07-29 02:33:52 51°13.664 2°55.955 5.3 37 17 101270 41
2010-07-29 02:33:57 51°13.664 2°55.955 5.9 76 17 101270 42
2010-07-29 02:34:02 51°13.664 2°55.956 6.2 34 17 101270 42
2010-07-29 02:34:07 51°13.663 2°55.957 5.8 76 17.1 101280 41
2010-07-29 02:34:12 51°13.663 2°55.959 5.6 33 17.1 101280 41
2010-07-29 02:34:17 51°13.662 2°55.96 5.6 76 17 101270 42
2010-07-29 02:34:22 51°13.662 2°55.96 5 32 17 101270 42
2010-07-29 02:34:27 51°13.662 2°55.96 5 76 17.1 101270 43
2010-07-29 02:34:32 51°13.662 2°55.959 4.4 38 17.1 101270 43
2010-07-29 02:34:37 51°13.662 2°55.959 5.9 28 17 101280 41
2010-07-29 02:34:42 51°13.663 2°55.959 3.3 37 17 101280 41
2010-07-29 02:34:47 51°13.663 2°55.959 6.3 77 17.1 101280 41
2010-07-29 02:34:52 51°13.663 2°55.958 6.1 33 17.1 101280 41
2010-07-29 02:34:57 51°13.662 2°55.959 6.8 77 17.1 101270 43
2010-07-29 02:35:02 51°13.662 2°55.959 6.7 39 17.1 101270 43
2010-07-29 02:35:07 51°13.662 2°55.959 4.7 77 17.1 101270 42
2010-07-29 02:35:12 51°13.662 2°55.959 5.5 39 17.1 101270 42
2010-07-29 02:35:17 51°13.662 2°55.959 5.5 75 17.1 101270 42
2010-07-29 02:35:22 51°13.662 2°55.958 6.6 38 17.1 101270 42
2010-07-29 02:35:27 51°13.662 2°55.959 4.6 77 17.1 101280 43
2010-07-29 02:35:32 51°13.662 2°55.959 5.2 35 17.1 101280 43
2010-07-29 02:35:37 51°13.662 2°55.959 5.2 24 17.1 101280 41
2010-07-29 02:35:42 51°13.662 2°55.959 5.4 34 17.1 101280 41
2010-07-29 02:35:47 51°13.662 2°55.96 5.3 77 17.1 101270 43
2010-07-29 02:35:52 51°13.662 2°55.96 5.8 39 17.1 101270 43
2010-07-29 02:35:57 51°13.662 2°55.96 6.1 78 17.1 101280 42
2010-07-29 02:36:02 51°13.662 2°55.96 5.8 40 17.1 101280 42
2010-07-29 02:36:07 51°13.662 2°55.96 6.1 81 17.1 101270 40
2010-07-29 02:36:12 51°13.662 2°55.96 4.9 34 17.1 101270 40
2010-07-29 02:36:17 51°13.662 2°55.96 6 78 17 101270 42
2010-07-29 02:36:22 51°13.662 2°55.96 5.8 34 17 101270 42
2010-07-29 02:36:27 51°13.662 2°55.961 6.4 75 17 101270 41
2010-07-29 02:36:32 51°13.662 2°55.961 4.8 32 17 101270 41
2010-07-29 02:36:37 51°13.662 2°55.961 4.2 28 17 101270 42
2010-07-29 02:36:42 51°13.662 2°55.961 5.2 33 17 101270 42
2010-07-29 02:36:47 51°13.662 2°55.961 4 79 17 101270 41
2010-07-29 02:36:52 51°13.662 2°55.961 4.6 32 17 101270 41
2010-07-29 02:36:57 51°13.662 2°55.961 7.1 77 17 101280 42
2010-07-29 02:37:02 51°13.662 2°55.961 4.9 35 17 101280 42
2010-07-29 02:37:07 51°13.662 2°55.961 8.7 75 17.1 101280 42
2010-07-29 02:37:12 51°13.662 2°55.961 5.2 34 17.1 101280 42
2010-07-29 02:37:17 51°13.662 2°55.961 5.3 83 17.1 101270 44
2010-07-29 02:37:22 51°13.662 2°55.961 5.7 33 17.1 101270 44
2010-07-29 02:37:27 51°13.662 2°55.961 6 75 17.1 101270 42
2010-07-29 02:37:32 51°13.662 2°55.961 5.6 40 17.1 101270 42
2010-07-29 02:37:37 51°13.662 2°55.96 4.5 26 17.1 101280 44
2010-07-29 02:37:42 51°13.662 2°55.96 6.6 39 17.1 101280 44
2010-07-29 02:37:47 51°13.662 2°55.961 6.3 83 17.1 101270 43
2010-07-29 02:37:52 51°13.662 2°55.961 7.2 35 17.1 101270 43
2010-07-29 02:37:57 51°13.661 2°55.961 5.7 75 17.1 101270 44
2010-07-29 02:38:02 51°13.661 2°55.961 6 34 17.1 101270 44
2010-07-29 02:38:07 51°13.661 2°55.961 5.6 76 17.1 101280 43
2010-07-29 02:38:12 51°13.661 2°55.961 6.4 32 17.1 101280 43
2010-07-29 02:38:17 51°13.661 2°55.961 7.6 78 17 101280 43
2010-07-29 02:38:22 51°13.661 2°55.961 5.8 38 17 101280 43
2010-07-29 02:38:27 51°13.661 2°55.961 6.4 75 17 101280 44
2010-07-29 02:38:32 51°13.661 2°55.961 8.7 37 17 101280 44
2010-07-29 02:38:37 51°13.661 2°55.96 5.7 24 17 101270 43
2010-07-29 02:38:42 51°13.661 2°55.96 6.4 39 17 101270 43
2010-07-29 02:38:47 51°13.661 2°55.96 7.1 80 16.9 101270 42
2010-07-29 02:38:52 51°13.661 2°55.96 6.6 37 16.9 101270 42
2010-07-29 02:38:57 51°13.661 2°55.96 6.7 77 16.9 101270 43
2010-07-29 02:39:02 51°13.661 2°55.96 6.9 34 16.9 101270 43
2010-07-29 02:39:07 51°13.661 2°55.961 7.6 81 16.9 101280 43
2010-07-29 02:39:12 51°13.661 2°55.961 6.6 40 16.9 101280 43
2010-07-29 02:39:17 51°13.661 2°55.961 6.3 75 16.9 101280 44
2010-07-29 02:39:22 51°13.66 2°55.961 7.5 39 16.9 101280 44
2010-07-29 02:39:27 51°13.66 2°55.961 6.7 78 16.9 101270 45
2010-07-29 02:39:32 51°13.66 2°55.961 7.2 39 16.9 101270 45
2010-07-29 02:39:37 51°13.66 2°55.961 8.5 21 16.9 101270 44
2010-07-29 02:39:42 51°13.66 2°55.961 6.4 34 16.9 101270 44
2010-07-29 02:39:47 51°13.66 2°55.961 7.8 79 16.9 101270 43
2010-07-29 02:39:52 51°13.66 2°55.961 3.4 38 16.9 101270 43
2010-07-29 02:39:57 51°13.66 2°55.961 6.9 78 16.8 101270 43
2010-07-29 02:40:02 51°13.66 2°55.961 6.3 38 16.8 101270 43
2010-07-29 02:40:07 51°13.66 2°55.961 7.9 77 16.8 101280 43
2010-07-29 02:40:12 51°13.66 2°55.961 5.9 36 16.8 101280 43
2010-07-29 02:40:17 51°13.66 2°55.961 4.4 76 16.8 101280 45
2010-07-29 02:40:22 51°13.66 2°55.961 5.7 32 16.8 101280 45
2010-07-29 02:40:27 51°13.66 2°55.961 6.6 75 16.8 101280 45
2010-07-29 02:40:32 51°13.66 2°55.961 5.5 38 16.8 101280 45
2010-07-29 02:40:37 51°13.66 2°55.961 6.6 23 16.7 101280 45
2010-07-29 02:40:42 51°13.66 2°55.961 6 40 16.7 101280 45
2010-07-29 02:40:47 51°13.66 2°55.961 5.8 78 16.7 101270 45
2010-07-29 02:40:52 51°13.66 2°55.961 6.1 35 16.7 101270 45
2010-07-29 02:40:57 51°13.66 2°55.961 4.1 82 16.7 101270 43
2010-07-29 02:41:02 51°13.66 2°55.961 5.6 39 16.7 101270 43
2010-07-29 02:41:07 51°13.66 2°55.961 4 81 16.7 101270 44
2010-07-29 02:41:12 51°13.66 2°55.961 5.3 38 16.7 101270 44
2010-07-29 02:41:17 51°13.66 2°55.961 4.7 80 16.7 101270 43
2010-07-29 02:41:22 51°13.66 2°55.961 4.9 35 16.7 101270 43
2010-07-29 02:41:27 51°13.66 2°55.961 5.2 79 16.7 101270 42
2010-07-29 02:41:32 51°13.66 2°55.961 6 32 16.7 101270 42
2010-07-29 02:41:37 51°13.66 2°55.961 4 21 16.7 101270 43
2010-07-29 02:41:42 51°13.66 2°55.961 6.8 33 16.7 101270 43
2010-07-29 02:41:47 51°13.66 2°55.961 6.1 77 16.7 101270 43
2010-07-29 02:41:52 51°13.66 2°55.961 4.7 33 16.7 101270 43
2010-07-29 02:41:57 51°13.66 2°55.961 6.6 78 16.7 101270 44
2010-07-29 02:42:02 51°13.66 2°55.961 7.3 33 16.7 101270 44
2010-07-29 02:42:07 51°13.66 2°55.961 4.1 84 16.7 101270 44
2010-07-29 02:42:12 51°13.66 2°55.961 6.7 40 16.7 101270 44
2010-07-29 02:42:17 51°13.66 2°55.961 6.7 82 16.7 101290 43
2010-07-29 02:42:22 51°13.66 2°55.961 8.2 34 16.7 101290 43
2010-07-29 02:42:27 51°13.66 2°55.961 6.3 82 16.7 101280 43
2010-07-29 02:42:32 51°13.66 2°55.961 7.7 38 16.7 101280 43
2010-07-29 02:42:37 51°13.66 2°55.961 8.6 23 16.7 101270 44
2010-07-29 02:42:42 51°13.66 2°55.961 6.4 34 16.7 101270 44
2010-07-29 02:42:47 51°13.66 2°55.961 7.4 82 16.7 101270 44
2010-07-29 02:42:52 51°13.66 2°55.961 6.7 34 16.7 101270 44
2010-07-29 02:42:57 51°13.66 2°55.961 7.2 84 16.7 101270 44
2010-07-29 02:43:02 51°13.66 2°55.961 7.4 37 16.7 101270 44
2010-07-29 02:43:07 51°13.66 2°55.961 6.1 83 16.6 101280 44
2010-07-29 02:43:12 51°13.66 2°55.961 6.7 32 16.6 101280 44
2010-07-29 02:43:17 51°13.66 2°55.961 6.8 78 16.7 101270 45
2010-07-29 02:43:22 51°13.66 2°55.961 6.3 40 16.7 101270 45
2010-07-29 02:43:27 51°13.66 2°55.961 5.3 78 16.7 101280 44
2010-07-29 02:43:32 51°13.66 2°55.961 5.3 37 16.7 101280 44
2010-07-29 02:43:37 51°13.66 2°55.961 5.6 27 16.7 101270 44
2010-07-29 02:43:42 51°13.659 2°55.962 6.5 41 16.7 101270 44
2010-07-29 02:43:47 51°13.659 2°55.962 5.9 81 16.7 101270 44
2010-07-29 02:43:52 51°13.659 2°55.962 5.4 37 16.7 101270 44
2010-07-29 02:43:57 51°13.659 2°55.961 5.7 76 16.7 101280 44
2010-07-29 02:44:02 51°13.659 2°55.962 5.8 35 16.7 101280 44
2010-07-29 02:44:07 51°13.659 2°55.962 5.7 21 16.6 101270 44
2010-07-29 02:44:12 51°13.66 2°55.962 6.4 36 16.6 101270 44
2010-07-29 02:44:17 51°13.66 2°55.962 6.4 83 16.6 101270 45
2010-07-29 02:44:22 51°13.66 2°55.962 5.8 35 16.6 101270 45
2010-07-29 02:44:27 51°13.66 2°55.962 7.6 82 16.6 101270 44
2010-07-29 02:44:32 51°13.66 2°55.962 6.2 34 16.6 101270 44
2010-07-29 02:44:37 51°13.66 2°55.962 6.4 23 16.6 101270 43
2010-07-29 02:44:42 51°13.66 2°55.962 5.6 39 16.6 101270 43
2010-07-29 02:44:47 51°13.66 2°55.962 6.3 78 16.6 101280 44
2010-07-29 02:44:52 51°13.66 2°55.962 6.2 34 16.6 101280 44
2010-07-29 02:44:57 51°13.66 2°55.962 6.2 75 16.6 101270 45
2010-07-29 02:45:02 51°13.66 2°55.962 6.6 38 16.6 101270 45
2010-07-29 02:45:07 51°13.66 2°55.961 6.7 77 16.6 101280 45
2010-07-29 02:45:12 51°13.661 2°55.961 6.8 39 16.6 101280 45
2010-07-29 02:45:17 51°13.661 2°55.961 5.9 76 16.6 101270 45
2010-07-29 02:45:22 51°13.661 2°55.961 7.8 31 16.6 101270 45
2010-07-29 02:45:27 51°13.661 2°55.961 6.4 76 16.6 101270 44
2010-07-29 02:45:32 51°13.661 2°55.961 5.8 31 16.6 101270 44
2010-07-29 02:45:37 51°13.661 2°55.961 5.4 27 16.6 101270 44
2010-07-29 02:45:42 51°13.661 2°55.961 7 32 16.6 101270 44
2010-07-29 02:45:47 51°13.661 2°55.961 6.5 80 16.6 101270 45
2010-07-29 02:45:52 51°13.661 2°55.961 6.9 34 16.6 101270 45
2010-07-29 02:45:57 51°13.661 2°55.961 6.8 77 16.6 101270 44
2010-07-29 02:46:02 51°13.661 2°55.961 7.4 36 16.6 101270 44
2010-07-29 02:46:07 51°13.661 2°55.961 6.3 77 16.6 101270 44
2010-07-29 02:46:12 51°13.661 2°55.96 6.1 39 16.6 101270 44
2010-07-29 02:46:17 51°13.661 2°55.961 5.3 80 16.5 101270 44
2010-07-29 02:46:22 51°13.661 2°55.961 5.7 32 16.5 101270 44
2010-07-29 02:46:27 51°13.66 2°55.961 5.2 26 16.6 101270 44
2010-07-29 02:46:32 51°13.66 2°55.961 6.5 38 16.6 101270 44
2010-07-29 02:46:37 51°13.66 2°55.961 4.9 23 16.6 101270 46
2010-07-29 02:46:42 51°13.661 2°55.961 7.4 32 16.6 101270 46
2010-07-29 02:46:47 51°13.66 2°55.961 5.1 78 16.6 101270 45
2010-07-29 02:46:52 51°13.66 2°55.961 6.8 40 16.6 101270 45
2010-07-29 02:46:57 51°13.66 2°55.961 7.9 82 16.6 101270 45
2010-07-29 02:47:02 51°13.66 2°55.961 5.7 35 16.6 101270 45
2010-07-29 02:47:07 51°13.661 2°55.96 7 75 16.6 101270 45
2010-07-29 02:47:12 51°13.661 2°55.96 5.5 31 16.6 101270 45
2010-07-29 02:47:17 51°13.661 2°55.96 5.4 76 16.5 101280 45
2010-07-29 02:47:22 51°13.661 2°55.96 7.4 36 16.5 101280 45
2010-07-29 02:47:27 51°13.661 2°55.96 5.7 82 16.5 101280 44
2010-07-29 02:47:32 51°13.661 2°55.96 7.2 39 16.5 101280 44
2010-07-29 02:47:37 51°13.66 2°55.96 6.4 29 16.5 101270 46
2010-07-29 02:47:42 51°13.66 2°55.96 5.6 36 16.5 101270 46
2010-07-29 02:47:47 51°13.66 2°55.959 6.1 76 16.5 101280 45
2010-07-29 02:47:52 51°13.66 2°55.959 7.7 35 16.5 101280 45
2010-07-29 02:47:57 51°13.66 2°55.959 7.5 81 16.5 101280 45
2010-07-29 02:48:02 51°13.66 2°55.959 9.7 35 16.5 101280 45
2010-07-29 02:48:07 51°13.66 2°55.959 9.2 80 16.5 101270 47
2010-07-29 02:48:12 51°13.66 2°55.959 10 37 16.5 101270 47
2010-07-29 02:48:17 51°13.66 2°55.959 8.2 77 16.4 101280 44
2010-07-29 02:48:22 51°13.66 2°55.959 7.8 35 16.4 101280 44
2010-07-29 02:48:27 51°13.661 2°55.959 7.3 79 16.4 101280 44
2010-07-29 02:48:32 51°13.66 2°55.959 7.3 34 16.4 101280 44
2010-07-29 02:48:37 51°13.66 2°55.959 7.8 21 16.3 101280 44
2010-07-29 02:48:42 51°13.66 2°55.959 6.8 31 16.3 101280 44
2010-07-29 02:48:47 51°13.66 2°55.959 6.5 81 16.3 101270 46
2010-07-29 02:48:52 51°13.66 2°55.959 6.4 34 16.3 101270 46
2010-07-29 02:48:57 51°13.66 2°55.959 8.6 83 16.2 101280 45
2010-07-29 02:49:02 51°13.66 2°55.959 8.5 37 16.2 101280 45
2010-07-29 02:49:07 51°13.66 2°55.959 7.4 82 16.2 101280 46
2010-07-29 02:49:12 51°13.66 2°55.959 8.4 28 16.2 101280 45
2010-07-29 02:49:17 51°13.66 2°55.959 7.6 76 16.2 101280 45
2010-07-29 02:49:22 51°13.66 2°55.959 7.3 39 16.1 101280 43
2010-07-29 02:49:27 51°13.66 2°55.959 7.6 77 16.1 101280 43
2010-07-29 02:49:32 51°13.66 2°55.958 7.8 26 16.1 101280 45
2010-07-29 02:49:37 51°13.66 2°55.958 6.7 -999 16.1 101280 45
2010-07-29 02:49:42 51°13.66 2°55.959 7.3 32 16.1 101280 44
2010-07-29 02:49:47 51°13.66 2°55.959 9.4 77 16.1 101280 44
2010-07-29 02:49:52 51°13.66 2°55.959 7.6 32 16 101280 45
2010-07-29 02:49:57 51°13.661 2°55.959 8 80 16 101280 45
2010-07-29 02:50:02 51°13.661 2°55.959 7.4 22 16 101290 45
2010-07-29 02:50:07 51°13.661 2°55.958 7.5 78 16 101290 45
2010-07-29 02:50:12 51°13.661 2°55.958 7.6 34 15.9 101280 44
2010-07-29 02:50:17 51°13.661 2°55.958 8.1 81 15.9 101280 44
2010-07-29 02:50:22 51°13.661 2°55.958 7.5 26 15.9 101280 45
2010-07-29 02:50:27 51°13.661 2°55.958 5.9 82 15.9 101280 45
2010-07-29 02:50:32 51°13.662 2°55.958 6.1 35 15.9 101280 45
2010-07-29 02:50:37 51°13.662 2°55.958 7.8 76 15.9 101280 45
2010-07-29 02:50:42 51°13.662 2°55.958 6.7 26 15.9 101280 44
2010-07-29 02:50:47 51°13.662 2°55.958 6.7 75 15.9 101280 44
2010-07-29 02:50:52 51°13.662 2°55.958 6.8 35 15.9 101280 44
2010-07-29 02:50:57 51°13.662 2°55.958 6.2 75 15.9 101280 44
2010-07-29 02:51:02 51°13.662 2°55.958 6.1 35 15.9 101270 46
2010-07-29 02:51:07 51°13.662 2°55.958 7.9 75 15.9 101270 46
2010-07-29 02:51:12 51°13.662 2°55.959 5.6 24 15.9 101280 46
2010-07-29 02:51:17 51°13.662 2°55.959 5.6 84 15.9 101280 46
2010-07-29 02:51:22 51°13.662 2°55.959 5.3 35 15.8 101270 44
2010-07-29 02:51:27 51°13.663 2°55.959 6.1 79 15.8 101270 44
2010-07-29 02:51:32 51°13.663 2°55.959 6.6 25 15.9 101270 46
2010-07-29 02:51:37 51°13.663 2°55.959 5.2 -999 15.9 101270 46
2010-07-29 02:51:42 51°13.663 2°55.959 5.6 34 15.9 101280 46
2010-07-29 02:51:47 51°13.663 2°55.959 4.6 81 15.9 101280 46
2010-07-29 02:51:52 51°13.664 2°55.959 6.8 20 15.8 101280 44
2010-07-29 02:51:57 51°13.664 2°55.959 6.2 76 15.8 101280 44
2010-07-29 02:52:02 51°13.664 2°55.959 5.8 38 15.9 101270 43
2010-07-29 02:52:07 51°13.664 2°55.959 5.2 77 15.9 101270 43
2010-07-29 02:52:12 51°13.664 2°55.959 6 22 15.8 101280 46
2010-07-29 02:52:17 51°13.664 2°55.959 7.3 77 15.8 101280 46
2010-07-29 02:52:22 51°13.664 2°55.96 5.2 25 15.9 101280 46
2010-07-29 02:52:27 51°13.664 2°55.96 5.2 83 15.9 101280 46
2010-07-29 02:52:32 51°13.664 2°55.96 5.9 36 15.9 101280 45
2010-07-29 02:52:37 51°13.664 2°55.96 5.3 20 15.9 101280 45
2010-07-29 02:52:42 51°13.664 2°55.96 5.4 28 15.9 101280 45
2010-07-29 02:52:47 51°13.664 2°55.96 6.3 82 15.9 101280 45
2010-07-29 02:52:52 51°13.664 2°55.96 5 33 15.9 101280 45
2010-07-29 02:52:57 51°13.664 2°55.959 5.4 75 15.9 101280 45
2010-07-29 02:53:02 51°13.665 2°55.959 6.2 26 15.9 101280 45
2010-07-29 02:53:07 51°13.665 2°55.959 6.4 77 15.9 101280 45
2010-07-29 02:53:12 51°13.665 2°55.959 6.2 34 16 101280 45
2010-07-29 02:53:17 51°13.665 2°55.959 5.9 76 16 101280 45
2010-07-29 02:53:22 51°13.664 2°55.959 7.2 20 16 101280 45
2010-07-29 02:53:27 51°13.664 2°55.958 6.7 77 16 101280 45
2010-07-29 02:53:32 51°13.665 2°55.958 6.6 37 16 101280 45
2010-07-29 02:53:37 51°13.665 2°55.958 6.3 -999 16 101280 45
2010-07-29 02:53:42 51°13.665 2°55.958 6.7 20 16 101280 46
2010-07-29 02:53:47 51°13.665 2°55.958 6.3 78 16 101280 46
2010-07-29 02:53:52 51°13.665 2°55.958 6.7 35 16 101280 45
2010-07-29 02:53:57 51°13.665 2°55.958 6.2 83 16 101280 45
2010-07-29 02:54:02 51°13.665 2°55.958 5.7 38 16 101290 46
2010-07-29 02:54:07 51°13.665 2°55.957 6.7 75 16 101290 46
2010-07-29 02:54:12 51°13.665 2°55.957 5.7 27 16 101290 45
2010-07-29 02:54:17 51°13.665 2°55.957 6.1 77 16 101290 45
2010-07-29 02:54:22 51°13.665 2°55.959 6.4 33 15.9 101280 46
2010-07-29 02:54:27 51°13.664 2°55.963 6.5 76 15.9 101280 46
2010-07-29 02:54:32 51°13.664 2°55.962 5.9 24 15.9 101290 46
2010-07-29 02:54:37 51°13.662 2°55.965 6.6 82 15.9 101290 46
2010-07-29 02:54:42 51°13.662 2°55.965 6.6 41 15.9 101280 43
2010-07-29 02:54:47 51°13.663 2°55.964 4.8 78 15.9 101280 43
2010-07-29 02:54:52 51°13.663 2°55.963 5 23 15.9 101280 44
2010-07-29 02:54:57 51°13.664 2°55.962 5.8 77 15.9 101280 44
2010-07-29 02:55:02 51°13.664 2°55.961 4.3 38 16 101280 44
2010-07-29 02:55:07 51°13.665 2°55.96 4.5 81 16 101280 44
2010-07-29 02:55:12 51°13.665 2°55.959 3.4 26 16 101280 46
2010-07-29 02:55:17 51°13.665 2°55.959 5.4 81 16 101280 46
2010-07-29 02:55:22 51°13.666 2°55.958 4.3 26 16 101280 45
2010-07-29 02:55:27 51°13.666 2°55.958 4.9 78 16 101280 45
2010-07-29 02:55:32 51°13.665 2°55.957 5.8 40 16 101280 44
2010-07-29 02:55:37 51°13.665 2°55.957 4.7 -999 16 101280 44
2010-07-29 02:55:42 51°13.665 2°55.958 6.6 24 16 101280 45
2010-07-29 02:55:47 51°13.665 2°55.958 6 78 16 101280 45
2010-07-29 02:55:52 51°13.665 2°55.959 4.2 266 15.9 101280 45
2010-07-29 02:55:57 51°13.665 2°55.959 6.1 76 15.9 101280 45
2010-07-29 02:56:02 51°13.665 2°55.959 6.6 29 15.9 101280 44
2010-07-29 02:56:07 51°13.664 2°55.96 4.9 78 15.9 101280 44
2010-07-29 02:56:12 51°13.665 2°55.959 5.4 35 15.9 101290 46
2010-07-29 02:56:17 51°13.665 2°55.959 6.1 83 15.9 101290 46
2010-07-29 02:56:22 51°13.665 2°55.959 5 27 15.9 101280 45
2010-07-29 02:56:27 51°13.665 2°55.958 6 76 15.9 101280 45
2010-07-29 02:56:32 51°13.665 2°55.958 6.6 35 15.8 101280 44
2010-07-29 02:56:37 51°13.665 2°55.958 5.3 83 15.8 101280 44
2010-07-29 02:56:42 51°13.665 2°55.958 6.5 36 15.8 101280 45
2010-07-29 02:56:47 51°13.665 2°55.958 5.8 76 15.8 101280 45
2010-07-29 02:56:52 51°13.665 2°55.958 4.1 21 15.8 101280 46
2010-07-29 02:56:57 51°13.665 2°55.958 5.8 80 15.8 101280 46
2010-07-29 02:57:02 51°13.665 2°55.958 5.3 31 15.8 101290 45
2010-07-29 02:57:07 51°13.665 2°55.958 5 79 15.8 101290 45
2010-07-29 02:57:12 51°13.665 2°55.959 4.7 21 15.8 101290 44
2010-07-29 02:57:17 51°13.665 2°55.959 5 78 15.8 101290 44
2010-07-29 02:57:22 51°13.665 2°55.96 4.4 33 15.8 101280 42
2010-07-29 02:57:27 51°13.665 2°55.96 5.9 75 15.8 101280 42
2010-07-29 02:57:32 51°13.665 2°55.96 5.8 22 15.8 101280 45
2010-07-29 02:57:37 51°13.665 2°55.961 6.2 -999 15.8 101280 45
2010-07-29 02:57:42 51°13.665 2°55.961 5.1 34 15.8 101270 44
2010-07-29 02:57:47 51°13.664 2°55.961 6.7 82 15.8 101270 44
2010-07-29 02:57:52 51°13.665 2°55.961 6.2 29 15.8 101280 45
2010-07-29 02:57:57 51°13.665 2°55.961 5.7 80 15.8 101280 45
2010-07-29 02:58:02 51°13.665 2°55.961 4.7 34 15.7 101290 44
2010-07-29 02:58:07 51°13.665 2°55.961 6.1 77 15.7 101290 44
2010-07-29 02:58:12 51°13.665 2°55.961 5.8 35 15.7 101290 45
2010-07-29 02:58:17 51°13.665 2°55.961 5.5 77 15.7 101290 45
2010-07-29 02:58:22 51°13.665 2°55.961 5.4 21 15.7 101280 45
2010-07-29 02:58:27 51°13.665 2°55.961 5.1 75 15.7 101280 45
2010-07-29 02:58:32 51°13.665 2°55.961 6 34 15.7 101280 46
2010-07-29 02:58:37 51°13.665 2°55.961 5 -999 15.7 101280 46
2010-07-29 02:58:42 51°13.664 2°55.961 5 27 15.7 101280 45
2010-07-29 02:58:47 51°13.664 2°55.961 4.8 75 15.7 101280 45
2010-07-29 02:58:52 51°13.665 2°55.959 4.6 34 15.7 101280 44
2010-07-29 02:58:57 51°13.665 2°55.956 4.4 82 15.7 101280 44
2010-07-29 02:59:02 51°13.665 2°55.956 4.9 23 15.7 101280 44
2010-07-29 02:59:07 51°13.665 2°55.956 4.9 76 15.7 101280 44
2010-07-29 02:59:12 51°13.665 2°55.959 4.7 35 15.7 101280 45
2010-07-29 02:59:17 51°13.662 2°55.965 4.8 82 15.7 101280 45
2010-07-29 02:59:22 51°13.661 2°55.969 5.9 37 15.7 101280 44
2010-07-29 02:59:27 51°13.66 2°55.971 6.2 80 15.7 101280 44
2010-07-29 02:59:32 51°13.66 2°55.972 6.4 33 15.7 101280 44
2010-07-29 02:59:37 51°13.659 2°55.972 4.7 82 15.7 101280 44
2010-07-29 02:59:42 51°13.66 2°55.972 5.9 32 15.7 101280 46
2010-07-29 02:59:47 51°13.66 2°55.972 5.8 76 15.7 101280 46
2010-07-29 02:59:52 51°13.66 2°55.971 5.7 28 15.7 101280 44
2010-07-29 02:59:57 51°13.661 2°55.97 4.4 76 15.7 101280 44
2010-07-29 03:00:02 51°13.662 2°55.97 4.1 40 15.7 101280 43
2010-07-29 03:00:07 51°13.663 2°55.97 5.1 77 15.7 101280 43
2010-07-29 03:00:12 51°13.663 2°55.969 5.1 26 15.7 101280 45
2010-07-29 03:00:17 51°13.664 2°55.969 5.7 76 15.7 101280 45
2010-07-29 03:00:22 51°13.664 2°55.968 5.1 34 15.7 101280 46
2010-07-29 03:00:27 51°13.665 2°55.968 4.8 80 15.7 101280 46
2010-07-29 03:00:32 51°13.665 2°55.968 6.8 24 15.7 101280 44
2010-07-29 03:00:37 51°13.665 2°55.968 5.1 82 15.7 101280 44
2010-07-29 03:00:42 51°13.665 2°55.968 5 31 15.7 101280 46
2010-07-29 03:00:47 51°13.665 2°55.968 6 76 15.7 101280 46
2010-07-29 03:00:52 51°13.665 2°55.968 4.7 40 15.7 101280 44
2010-07-29 03:00:57 51°13.665 2°55.968 4.6 77 15.7 101280 44
2010-07-29 03:01:02 51°13.665 2°55.968 4.5 29 15.7 101290 44
2010-07-29 03:01:07 51°13.665 2°55.968 5 76 15.7 101290 44
2010-07-29 03:01:12 51°13.665 2°55.967 3.9 38 15.7 101290 45
2010-07-29 03:01:17 51°13.665 2°55.967 4.1 78 15.7 101290 45
2010-07-29 03:01:22 51°13.665 2°55.967 5.6 28 15.7 101280 44
2010-07-29 03:01:27 51°13.665 2°55.967 5.4 77 15.7 101280 44
2010-07-29 03:01:32 51°13.665 2°55.966 5.2 39 15.7 101290 45
2010-07-29 03:01:37 51°13.665 2°55.966 4.4 77 15.7 101290 45
2010-07-29 03:01:42 51°13.666 2°55.966 3.9 27 15.7 101280 45
2010-07-29 03:01:47 51°13.666 2°55.965 3.8 77 15.7 101280 45
2010-07-29 03:01:52 51°13.666 2°55.965 4.8 33 15.7 101280 44
2010-07-29 03:01:57 51°13.666 2°55.964 5.2 76 15.7 101280 44
2010-07-29 03:02:02 51°13.666 2°55.964 4.4 31 15.7 101280 46
2010-07-29 03:02:07 51°13.666 2°55.963 4 80 15.7 101280 46
2010-07-29 03:02:12 51°13.666 2°55.963 4.9 22 15.7 101290 44
2010-07-29 03:02:17 51°13.666 2°55.963 4.9 82 15.7 101290 44
2010-07-29 03:02:22 51°13.666 2°55.963 5.5 36 15.7 101290 44
2010-07-29 03:02:27 51°13.666 2°55.963 4.7 77 15.7 101290 44
2010-07-29 03:02:32 51°13.666 2°55.963 4.7 25 15.7 101280 45
2010-07-29 03:02:37 51°13.666 2°55.963 5.8 82 15.7 101280 45
2010-07-29 03:02:42 51°13.666 2°55.963 4.5 37 15.7 101290 44
2010-07-29 03:02:47 51°13.666 2°55.963 4 82 15.7 101290 44
2010-07-29 03:02:52 51°13.666 2°55.963 3.9 28 15.7 101280 43
2010-07-29 03:02:57 51°13.665 2°55.963 5 76 15.7 101280 43
2010-07-29 03:03:02 51°13.665 2°55.962 5.2 34 15.7 101280 43
2010-07-29 03:03:07 51°13.665 2°55.962 5.8 78 15.7 101280 43
2010-07-29 03:03:12 51°13.665 2°55.962 5.8 21 15.7 101280 45
2010-07-29 03:03:17 51°13.665 2°55.962 4.6 75 15.7 101280 45
2010-07-29 03:03:22 51°13.665 2°55.962 4.4 32 15.7 101280 44
2010-07-29 03:03:27 51°13.665 2°55.963 5 82 15.7 101280 44
2010-07-29 03:03:32 51°13.665 2°55.963 5.3 32 15.6 101290 44
2010-07-29 03:03:37 51°13.665 2°55.962 5.6 77 15.6 101290 44
2010-07-29 03:03:42 51°13.665 2°55.962 5.7 27 15.7 101280 44
2010-07-29 03:03:47 51°13.665 2°55.962 5.9 82 15.7 101280 44
2010-07-29 03:03:52 51°13.665 2°55.962 5.1 34 15.7 101290 46
2010-07-29 03:03:57 51°13.665 2°55.962 4.1 82 15.7 101290 46
2010-07-29 03:04:02 51°13.665 2°55.962 3.6 20 15.7 101280 45
2010-07-29 03:04:07 51°13.665 2°55.961 4.3 80 15.7 101280 45
2010-07-29 03:04:12 51°13.665 2°55.961 3.9 32 15.7 101290 44
2010-07-29 03:04:17 51°13.665 2°55.961 3.7 81 15.7 101290 44
2010-07-29 03:04:22 51°13.665 2°55.961 2.5 19 15.7 101280 44
2010-07-29 03:04:27 51°13.665 2°55.961 2.8 83 15.7 101280 44
2010-07-29 03:04:32 51°13.665 2°55.961 4.4 33 15.7 101280 44
2010-07-29 03:04:37 51°13.665 2°55.961 4.1 -999 15.7 101280 44
2010-07-29 03:04:42 51°13.665 2°55.961 4.3 40 15.7 101280 44
2010-07-29 03:04:47 51°13.665 2°55.961 4.2 79 15.7 101280 44
2010-07-29 03:04:52 51°13.665 2°55.961 4.9 26 15.7 101280 44
2010-07-29 03:04:57 51°13.665 2°55.961 4.4 76 15.7 101280 44
2010-07-29 03:05:02 51°13.666 2°55.961 3.7 34 15.7 101280 44
2010-07-29 03:05:07 51°13.666 2°55.961 5 75 15.7 101280 44
2010-07-29 03:05:12 51°13.666 2°55.96 5.1 22 15.7 101280 44
2010-07-29 03:05:17 51°13.666 2°55.96 5.1 77 15.7 101280 44
2010-07-29 03:05:22 51°13.665 2°55.96 4.3 40 15.7 101280 43
2010-07-29 03:05:27 51°13.665 2°55.961 5.3 76 15.7 101280 43
2010-07-29 03:05:32 51°13.665 2°55.961 4.7 26 15.7 101280 46
2010-07-29 03:05:37 51°13.665 2°55.961 4.4 77 15.7 101280 46
2010-07-29 03:05:42 51°13.666 2°55.961 3.4 34 15.8 101280 44
2010-07-29 03:05:47 51°13.666 2°55.96 3.4 76 15.8 101280 44
2010-07-29 03:05:52 51°13.666 2°55.96 3 21 15.8 101280 45
2010-07-29 03:05:57 51°13.666 2°55.96 4 81 15.8 101280 45
2010-07-29 03:06:02 51°13.666 2°55.96 4.5 28 15.8 101280 46
2010-07-29 03:06:07 51°13.666 2°55.96 3.9 78 15.8 101280 46
2010-07-29 03:06:12 51°13.666 2°55.96 4 34 15.8 101280 47
2010-07-29 03:06:17 51°13.666 2°55.961 3.5 77 15.8 101280 47
2010-07-29 03:06:22 51°13.666 2°55.961 3.9 21 15.8 101280 47
2010-07-29 03:06:27 51°13.665 2°55.961 2.9 77 15.8 101280 47
2010-07-29 03:06:32 51°13.665 2°55.961 3.4 34 15.8 101270 46
2010-07-29 03:06:37 51°13.665 2°55.961 3.7 77 15.8 101270 46
2010-07-29 03:06:42 51°13.665 2°55.961 3.2 21 15.9 101280 47
2010-07-29 03:06:47 51°13.665 2°55.961 3.8 78 15.9 101280 47
2010-07-29 03:06:52 51°13.665 2°55.961 4.6 41 15.9 101280 45
2010-07-29 03:06:57 51°13.665 2°55.961 4.8 77 15.9 101280 45
2010-07-29 03:07:02 51°13.665 2°55.961 3 21 15.9 101280 45
2010-07-29 03:07:07 51°13.665 2°55.961 4.7 83 15.9 101280 45
2010-07-29 03:07:12 51°13.664 2°55.961 4.6 37 15.9 101270 47
2010-07-29 03:07:17 51°13.664 2°55.961 4.2 76 15.9 101270 47
2010-07-29 03:07:22 51°13.664 2°55.961 4.5 31 15.9 101270 45
2010-07-29 03:07:27 51°13.664 2°55.961 5 80 15.9 101270 45
2010-07-29 03:07:32 51°13.664 2°55.96 5.6 25 15.9 101280 47
2010-07-29 03:07:37 51°13.664 2°55.96 4.8 76 15.9 101280 47
2010-07-29 03:07:42 51°13.664 2°55.96 3.5 34 15.9 101270 45
2010-07-29 03:07:47 51°13.664 2°55.96 3.6 75 15.9 101270 45
2010-07-29 03:07:52 51°13.664 2°55.96 3.9 21 15.9 101280 47
2010-07-29 03:07:57 51°13.664 2°55.96 3.6 77 15.9 101280 47
2010-07-29 03:08:02 51°13.664 2°55.96 3.3 32 15.8 101280 43
2010-07-29 03:08:07 51°13.664 2°55.96 4.3 77 15.8 101280 43
2010-07-29 03:08:12 51°13.664 2°55.96 4.7 21 15.8 101280 45
2010-07-29 03:08:17 51°13.663 2°55.961 4.3 82 15.8 101280 45
2010-07-29 03:08:22 51°13.663 2°55.961 5 24 15.8 101270 46
2010-07-29 03:08:27 51°13.663 2°55.961 4.5 79 15.8 101270 46
2010-07-29 03:08:32 51°13.663 2°55.96 3.9 26 15.8 101270 46
2010-07-29 03:08:37 51°13.664 2°55.96 3.7 77 15.8 101270 46
2010-07-29 03:08:42 51°13.663 2°55.96 4.3 27 15.8 101270 45
2010-07-29 03:08:47 51°13.664 2°55.96 2.7 83 15.8 101270 45
2010-07-29 03:08:52 51°13.664 2°55.96 4.3 37 15.8 101280 46
2010-07-29 03:08:57 51°13.664 2°55.96 4.3 76 15.8 101280 46
2010-07-29 03:09:02 51°13.664 2°55.96 4.9 27 15.8 101280 45
2010-07-29 03:09:07 51°13.664 2°55.96 4.5 76 15.8 101280 45
2010-07-29 03:09:12 51°13.664 2°55.96 4.1 31 15.9 101270 47
2010-07-29 03:09:17 51°13.664 2°55.961 3.9 77 15.9 101270 47
2010-07-29 03:09:22 51°13.663 2°55.96 4.5 29 15.9 101270 45
2010-07-29 03:09:27 51°13.663 2°55.961 4.4 77 15.9 101270 45
2010-07-29 03:09:32 51°13.663 2°55.961 4 38 15.8 101280 45
2010-07-29 03:09:37 51°13.663 2°55.961 3.7 75 15.8 101280 45
2010-07-29 03:09:42 51°13.663 2°55.96 3.2 20 15.8 101270 46
2010-07-29 03:09:47 51°13.663 2°55.96 5 78 15.8 101270 46
2010-07-29 03:09:52 51°13.663 2°55.96 4.1 37 15.8 101280 45
2010-07-29 03:09:57 51°13.663 2°55.96 3.7 75 15.8 101280 45
2010-07-29 03:10:02 51°13.663 2°55.96 3.3 32 15.8 101280 46
2010-07-29 03:10:07 51°13.663 2°55.96 3.1 75 15.8 101280 46
2010-07-29 03:10:12 51°13.663 2°55.96 4.3 34 15.8 101280 46
2010-07-29 03:10:17 51°13.663 2°55.96 2.2 77 15.8 101280 46
2010-07-29 03:10:22 51°13.663 2°55.96 2.2 33 15.8 101270 46
2010-07-29 03:10:27 51°13.663 2°55.96 2.6 83 15.8 101270 46
2010-07-29 03:10:32 51°13.663 2°55.96 2.7 22 15.8 101270 45
2010-07-29 03:10:37 51°13.662 2°55.961 3.1 -999 15.8 101270 45
2010-07-29 03:10:42 51°13.662 2°55.961 2.3 39 15.8 101280 46
2010-07-29 03:10:47 51°13.662 2°55.961 3.4 79 15.8 101280 46
2010-07-29 03:10:52 51°13.662 2°55.961 4.6 27 15.8 101270 45
2010-07-29 03:10:57 51°13.662 2°55.961 4.6 82 15.8 101270 45
2010-07-29 03:11:02 51°13.662 2°55.961 4.6 34 15.8 101270 45
2010-07-29 03:11:07 51°13.661 2°55.961 5 81 15.8 101270 45
2010-07-29 03:11:12 51°13.661 2°55.961 4.7 34 15.8 101270 47
2010-07-29 03:11:17 51°13.661 2°55.961 4.3 76 15.8 101270 47
2010-07-29 03:11:22 51°13.661 2°55.961 4.3 24 15.7 101270 47
2010-07-29 03:11:27 51°13.662 2°55.961 5.5 82 15.7 101270 47
2010-07-29 03:11:32 51°13.662 2°55.961 5.6 32 15.7 101280 46
2010-07-29 03:11:37 51°13.662 2°55.961 3.8 76 15.7 101280 46
2010-07-29 03:11:42 51°13.662 2°55.961 4.4 27 15.7 101280 47
2010-07-29 03:11:47 51°13.662 2°55.961 2.9 75 15.7 101280 47
2010-07-29 03:11:52 51°13.662 2°55.961 2.7 33 15.7 101270 47
2010-07-29 03:11:57 51°13.662 2°55.961 3.3 82 15.7 101270 47
2010-07-29 03:12:02 51°13.662 2°55.961 2.9 26 15.7 101270 47
2010-07-29 03:12:07 51°13.661 2°55.961 3.6 76 15.7 101270 47
2010-07-29 03:12:12 51°13.661 2°55.961 3.1 34 15.7 101270 47
2010-07-29 03:12:17 51°13.661 2°55.961 5.5 76 15.7 101270 47
2010-07-29 03:12:22 51°13.66 2°55.961 4.8 21 15.7 101280 45
2010-07-29 03:12:27 51°13.66 2°55.961 3.6 79 15.7 101280 45
2010-07-29 03:12:32 51°13.66 2°55.961 3.4 34 15.7 101270 45
2010-07-29 03:12:37 51°13.66 2°55.962 2.8 76 15.7 101270 45
2010-07-29 03:12:42 51°13.66 2°55.962 4.1 39 15.7 101280 47
2010-07-29 03:12:47 51°13.66 2°55.962 2.8 82 15.7 101280 47
2010-07-29 03:12:52 51°13.66 2°55.961 3.2 21 15.7 101270 45
2010-07-29 03:12:57 51°13.66 2°55.961 2.6 76 15.7 101270 45
2010-07-29 03:13:02 51°13.66 2°55.961 3.4 38 15.7 101270 45
2010-07-29 03:13:07 51°13.661 2°55.961 4.4 76 15.7 101270 45
2010-07-29 03:13:12 51°13.661 2°55.961 3.9 22 15.7 101270 45
2010-07-29 03:13:17 51°13.661 2°55.961 3.5 76 15.7 101270 45
2010-07-29 03:13:22 51°13.66 2°55.961 2.5 39 15.7 101270 43
2010-07-29 03:13:27 51°13.66 2°55.961 3.5 76 15.7 101270 43
2010-07-29 03:13:32 51°13.66 2°55.961 3.3 34 15.7 101270 46
2010-07-29 03:13:37 51°13.66 2°55.961 4.2 77 15.7 101270 46
2010-07-29 03:13:42 51°13.66 2°55.961 4.7 35 15.7 101270 45
2010-07-29 03:13:47 51°13.66 2°55.961 4.3 77 15.7 101270 45
2010-07-29 03:13:52 51°13.661 2°55.961 3.9 26 15.7 101270 46
2010-07-29 03:13:57 51°13.661 2°55.961 2.8 79 15.7 101270 46
2010-07-29 03:14:02 51°13.661 2°55.961 4.5 23 15.8 101270 47
2010-07-29 03:14:07 51°13.661 2°55.961 4.2 82 15.8 101270 47
2010-07-29 03:14:12 51°13.661 2°55.961 3.6 40 15.8 101270 45
2010-07-29 03:14:17 51°13.661 2°55.961 3.8 77 15.8 101270 45
2010-07-29 03:14:22 51°13.661 2°55.961 4.3 24 15.8 101260 45
2010-07-29 03:14:27 51°13.661 2°55.961 3.4 83 15.8 101260 45
2010-07-29 03:14:32 51°13.661 2°55.961 3.1 33 15.8 101270 46
2010-07-29 03:14:37 51°13.661 2°55.961 3.7 79 15.8 101270 46
2010-07-29 03:14:42 51°13.661 2°55.961 1.9 28 15.9 101270 45
2010-07-29 03:14:47 51°13.661 2°55.961 4.8 77 15.9 101270 45
2010-07-29 03:14:52 51°13.661 2°55.961 5.3 40 15.9 101270 45
2010-07-29 03:14:57 51°13.661 2°55.961 5.2 75 15.9 101270 45
2010-07-29 03:15:02 51°13.661 2°55.961 4.9 38 15.9 101270 47
2010-07-29 03:15:07 51°13.661 2°55.961 4.8 76 15.9 101270 47
2010-07-29 03:15:12 51°13.661 2°55.961 4.1 19 15.9 101270 46
2010-07-29 03:15:17 51°13.661 2°55.961 4.6 77 15.9 101270 46
2010-07-29 03:15:22 51°13.661 2°55.961 4.4 36 15.9 101270 45
2010-07-29 03:15:27 51°13.661 2°55.961 4.9 81 15.9 101270 45
2010-07-29 03:15:32 51°13.661 2°55.961 5 20 15.9 101270 47
2010-07-29 03:15:37 51°13.661 2°55.961 3.9 80 15.9 101270 47
2010-07-29 03:15:42 51°13.661 2°55.961 4.6 32 15.9 101270 45
2010-07-29 03:15:47 51°13.661 2°55.961 3.7 76 15.9 101270 45
2010-07-29 03:15:52 51°13.662 2°55.96 4.1 23 16 101270 45
2010-07-29 03:15:57 51°13.662 2°55.961 3.4 77 16 101270 45
2010-07-29 03:16:02 51°13.662 2°55.96 4.1 33 15.9 101270 43
2010-07-29 03:16:07 51°13.662 2°55.96 4.8 81 15.9 101270 43
2010-07-29 03:16:12 51°13.661 2°55.96 5.3 22 16 101270 46
2010-07-29 03:16:17 51°13.661 2°55.96 5.7 82 16 101270 46
2010-07-29 03:16:22 51°13.661 2°55.96 3 33 16 101270 47
2010-07-29 03:16:27 51°13.661 2°55.96 4.8 76 16 101270 47
2010-07-29 03:16:32 51°13.661 2°55.96 5.2 36 16 101270 45
2010-07-29 03:16:37 51°13.661 2°55.96 5.3 -999 16 101270 45
2010-07-29 03:16:42 51°13.661 2°55.96 4.5 21 16 101270 45
2010-07-29 03:16:47 51°13.661 2°55.96 5.3 82 16 101270 45
2010-07-29 03:16:52 51°13.661 2°55.961 4.3 34 16 101270 45
2010-07-29 03:16:57 51°13.661 2°55.961 5.5 83 16 101270 45
2010-07-29 03:17:02 51°13.66 2°55.961 3.9 21 16 101270 47
2010-07-29 03:17:07 51°13.661 2°55.961 4.8 80 16 101270 47
2010-07-29 03:17:12 51°13.661 2°55.961 5.5 33 16 101270 44
2010-07-29 03:17:17 51°13.661 2°55.961 3.7 77 16 101270 44
2010-07-29 03:17:22 51°13.661 2°55.961 4 27 16 101280 46
2010-07-29 03:17:27 51°13.661 2°55.961 2.7 75 16 101280 46
2010-07-29 03:17:32 51°13.66 2°55.961 4.4 34 16 101270 44
2010-07-29 03:17:37 51°13.66 2°55.961 6.8 74 16 101270 44
2010-07-29 03:17:42 51°13.66 2°55.961 5.4 34 16 101270 44
2010-07-29 03:17:47 51°13.66 2°55.961 6.2 80 16 101270 44
2010-07-29 03:17:52 51°13.66 2°55.961 3.9 22 16 101270 44
2010-07-29 03:17:57 51°13.66 2°55.961 4.3 78 16 101270 44
2010-07-29 03:18:02 51°13.66 2°55.961 4.6 32 16 101270 46
2010-07-29 03:18:07 51°13.66 2°55.961 4.8 76 16 101270 46
2010-07-29 03:18:12 51°13.661 2°55.962 6 22 16 101270 45
2010-07-29 03:18:17 51°13.661 2°55.962 5.6 81 16 101270 45
2010-07-29 03:18:22 51°13.661 2°55.962 6.1 35 16 101270 44
2010-07-29 03:18:27 51°13.663 2°55.96 4.8 81 16 101270 44
2010-07-29 03:18:32 51°13.663 2°55.96 4.1 29 16 101280 46
2010-07-29 03:18:37 51°13.663 2°55.96 4.4 76 16 101280 46
2010-07-29 03:18:42 51°13.663 2°55.961 3.9 34 16 101270 43
2010-07-29 03:18:47 51°13.664 2°55.961 3.1 80 16 101270 43
2010-07-29 03:18:52 51°13.663 2°55.961 3.7 34 16 101270 43
2010-07-29 03:18:57 51°13.663 2°55.961 3.4 76 16 101270 44
2010-07-29 03:19:02 51°13.664 2°55.961 3.4 28 16 101270 44
2010-07-29 03:19:07 51°13.664 2°55.961 3.1 78 16 101270 44
2010-07-29 03:19:12 51°13.664 2°55.96 4 39 15.9 101270 44
2010-07-29 03:19:17 51°13.664 2°55.96 4.6 82 15.9 101270 44
2010-07-29 03:19:22 51°13.664 2°55.96 5.7 23 15.9 101270 44
2010-07-29 03:19:27 51°13.664 2°55.961 4.1 77 15.9 101270 44
2010-07-29 03:19:32 51°13.664 2°55.96 4.5 37 15.9 101270 44
2010-07-29 03:19:37 51°13.664 2°55.961 4.9 79 15.9 101270 44
2010-07-29 03:19:42 51°13.664 2°55.961 4.8 22 15.9 101270 47
2010-07-29 03:19:47 51°13.664 2°55.961 4.2 82 15.9 101270 47
2010-07-29 03:19:52 51°13.664 2°55.961 4.3 33 16 101270 46
2010-07-29 03:19:57 51°13.664 2°55.961 4.6 80 16 101270 46
2010-07-29 03:20:02 51°13.664 2°55.961 4.9 28 16 101280 45
2010-07-29 03:20:07 51°13.664 2°55.961 5.3 82 16 101280 45
2010-07-29 03:20:12 51°13.664 2°55.961 3.7 33 16 101280 45
2010-07-29 03:20:17 51°13.664 2°55.961 4.1 79 16 101280 45
2010-07-29 03:20:22 51°13.664 2°55.961 3.9 37 16 101270 45
2010-07-29 03:20:27 51°13.664 2°55.961 5.2 75 16 101270 45
2010-07-29 03:20:32 51°13.664 2°55.961 5.7 21 16 101270 47
2010-07-29 03:20:37 51°13.664 2°55.961 5.1 76 16 101270 47
2010-07-29 03:20:42 51°13.664 2°55.961 4.5 34 16 101270 45
2010-07-29 03:20:47 51°13.664 2°55.961 3.4 77 16 101270 45
2010-07-29 03:20:52 51°13.664 2°55.961 5.1 21 16 101270 47
2010-07-29 03:20:57 51°13.665 2°55.961 5.2 77 16 101270 47
2010-07-29 03:21:02 51°13.665 2°55.961 4.5 37 16 101270 45
2010-07-29 03:21:07 51°13.665 2°55.961 4.3 77 16 101270 45
2010-07-29 03:21:12 51°13.665 2°55.961 5.1 20 16 101270 45
2010-07-29 03:21:17 51°13.665 2°55.962 5.1 75 16 101270 45
2010-07-29 03:21:22 51°13.665 2°55.962 5 31 16 101270 44
2010-07-29 03:21:27 51°13.666 2°55.962 4.3 78 16 101270 44
2010-07-29 03:21:32 51°13.666 2°55.962 3 21 15.9 101270 47
2010-07-29 03:21:37 51°13.666 2°55.962 4.7 76 15.9 101270 47
2010-07-29 03:21:42 51°13.666 2°55.962 4.3 29 15.9 101270 44
2010-07-29 03:21:47 51°13.666 2°55.962 4.5 75 15.9 101270 44
2010-07-29 03:21:52 51°13.666 2°55.962 4.9 31 15.9 101280 47
2010-07-29 03:21:57 51°13.665 2°55.962 6 76 15.9 101280 47
2010-07-29 03:22:02 51°13.665 2°55.962 5.9 27 15.9 101270 45
2010-07-29 03:22:07 51°13.665 2°55.962 5.1 75 15.9 101270 45
2010-07-29 03:22:12 51°13.665 2°55.962 5.1 40 15.9 101270 45
2010-07-29 03:22:17 51°13.665 2°55.962 3.8 75 15.9 101270 45
2010-07-29 03:22:22 51°13.665 2°55.962 2.7 21 15.9 101270 45
2010-07-29 03:22:27 51°13.665 2°55.962 4.3 79 15.9 101270 45
2010-07-29 03:22:32 51°13.665 2°55.962 2.7 35 15.9 101270 47
2010-07-29 03:22:37 51°13.665 2°55.962 3 -999 15.9 101270 47
2010-07-29 03:22:42 51°13.665 2°55.962 3.7 22 15.8 101280 45
2010-07-29 03:22:47 51°13.665 2°55.962 3.2 77 15.8 101280 45
2010-07-29 03:22:52 51°13.665 2°55.962 2.4 38 15.8 101270 45
2010-07-29 03:22:57 51°13.665 2°55.962 3.7 77 15.8 101270 45
2010-07-29 03:23:02 51°13.665 2°55.962 2.7 35 15.8 101270 45
2010-07-29 03:23:07 51°13.665 2°55.962 4.7 82 15.8 101270 45
2010-07-29 03:23:12 51°13.665 2°55.962 2.6 24 15.8 101280 45
2010-07-29 03:23:17 51°13.665 2°55.962 3.3 81 15.8 101280 45
2010-07-29 03:23:22 51°13.665 2°55.962 2.2 37 15.8 101270 47
2010-07-29 03:23:27 51°13.665 2°55.962 3.3 82 15.8 101270 47
2010-07-29 03:23:32 51°13.665 2°55.962 3.1 20 15.8 101270 45
2010-07-29 03:23:37 51°13.664 2°55.962 3 81 15.8 101270 45
2010-07-29 03:23:42 51°13.664 2°55.962 3.1 39 15.8 101270 45
2010-07-29 03:23:47 51°13.665 2°55.962 2.4 74 15.8 101270 45
2010-07-29 03:23:52 51°13.665 2°55.962 3.4 34 15.8 101270 45
2010-07-29 03:23:57 51°13.665 2°55.962 3.1 81 15.8 101270 47
2010-07-29 03:24:02 51°13.664 2°55.962 2.7 28 15.8 101280 43
2010-07-29 03:24:07 51°13.664 2°55.962 2.6 81 15.8 101280 43
2010-07-29 03:24:12 51°13.664 2°55.962 2.5 40 15.8 101270 47
2010-07-29 03:24:17 51°13.664 2°55.962 2.3 77 15.8 101270 47
2010-07-29 03:24:22 51°13.664 2°55.962 2.9 27 15.7 101270 45
2010-07-29 03:24:27 51°13.664 2°55.962 3.8 82 15.7 101270 45
2010-07-29 03:24:32 51°13.664 2°55.962 2.5 33 15.7 101270 47
2010-07-29 03:24:37 51°13.664 2°55.962 2.3 82 15.7 101270 47
2010-07-29 03:24:42 51°13.664 2°55.962 2.1 23 15.7 101270 47
2010-07-29 03:24:47 51°13.664 2°55.962 2.2 78 15.7 101270 47
2010-07-29 03:24:52 51°13.664 2°55.962 2.1 41 15.7 101270 45
2010-07-29 03:24:57 51°13.664 2°55.962 3 82 15.7 101270 45
2010-07-29 03:25:02 51°13.664 2°55.961 2.6 26 15.7 101270 45
2010-07-29 03:25:07 51°13.663 2°55.961 2.3 80 15.7 101270 45
2010-07-29 03:25:12 51°13.663 2°55.961 2.8 33 15.7 101270 45
2010-07-29 03:25:17 51°13.663 2°55.961 2.4 83 15.7 101270 45
2010-07-29 03:25:22 51°13.663 2°55.961 1.9 40 15.7 101270 46
2010-07-29 03:25:27 51°13.663 2°55.961 3.7 81 15.7 101270 46
2010-07-29 03:25:32 51°13.663 2°55.961 4.3 36 15.7 101270 45
2010-07-29 03:25:37 51°13.663 2°55.961 4.8 80 15.7 101270 45
2010-07-29 03:25:42 51°13.663 2°55.961 4 33 15.7 101270 45
2010-07-29 03:25:47 51°13.663 2°55.961 4.4 76 15.7 101270 45
2010-07-29 03:25:52 51°13.663 2°55.961 2.9 29 15.7 101270 45
2010-07-29 03:25:57 51°13.662 2°55.961 3.5 77 15.7 101270 45
2010-07-29 03:26:02 51°13.662 2°55.961 2.6 32 15.7 101270 45
2010-07-29 03:26:07 51°13.662 2°55.961 1.9 79 15.7 101270 45
2010-07-29 03:26:12 51°13.662 2°55.961 2.6 24 15.7 101270 45
2010-07-29 03:26:17 51°13.662 2°55.961 2.4 75 15.7 101270 45
2010-07-29 03:26:22 51°13.662 2°55.961 4.3 34 15.7 101270 48
2010-07-29 03:26:27 51°13.662 2°55.961 2.3 80 15.7 101270 48
2010-07-29 03:26:32 51°13.662 2°55.961 2.6 28 15.7 101270 45
2010-07-29 03:26:37 51°13.662 2°55.961 2.1 76 15.7 101270 45
2010-07-29 03:26:42 51°13.662 2°55.961 2.9 34 15.7 101270 45
2010-07-29 03:26:47 51°13.662 2°55.961 1.3 78 15.7 101270 45
2010-07-29 03:26:52 51°13.662 2°55.961 3.5 35 15.7 101270 48
2010-07-29 03:26:57 51°13.662 2°55.961 2.7 80 15.7 101270 48
2010-07-29 03:27:02 51°13.662 2°55.96 3.6 23 15.7 101270 45
2010-07-29 03:27:07 51°13.662 2°55.961 2.6 76 15.7 101270 45
2010-07-29 03:27:12 51°13.662 2°55.961 2.3 33 15.7 101270 47
2010-07-29 03:27:17 51°13.661 2°55.961 2.6 75 15.7 101270 47
2010-07-29 03:27:22 51°13.661 2°55.961 4.3 24 15.7 101270 46
2010-07-29 03:27:27 51°13.661 2°55.961 3.8 77 15.7 101270 46
2010-07-29 03:27:32 51°13.661 2°55.961 3.7 36 15.6 101270 46
2010-07-29 03:27:37 51°13.661 2°55.961 2.8 76 15.6 101270 46
2010-07-29 03:27:42 51°13.66 2°55.96 2.5 23 15.6 101270 47
2010-07-29 03:27:47 51°13.66 2°55.961 2.5 76 15.6 101270 47
2010-07-29 03:27:52 51°13.66 2°55.961 2.8 34 15.6 101270 45
2010-07-29 03:27:57 51°13.66 2°55.961 2 75 15.6 101270 45
2010-07-29 03:28:02 51°13.66 2°55.961 1.8 25 15.6 101270 47
2010-07-29 03:28:07 51°13.66 2°55.961 1.6 82 15.6 101270 47
2010-07-29 03:28:12 51°13.66 2°55.961 2.9 39 15.6 101270 45
2010-07-29 03:28:17 51°13.66 2°55.961 2.5 75 15.6 101270 45